Weather History for San Angelo, TX

Change the Weather History Date:

Tuesday, November 11, 2014

  Actual Average Record
Temperature  
Mean Temperature 50 °F 57 °F  
Max Temperature 62 °F 70 °F 86 °F (1916)
Min Temperature 37 °F 44 °F 17 °F (1950)
Degree Days  
Heating Degree Days 15 9  
Month to date heating degree days 72 78  
Since 1 July heating degree days 93 169  
Cooling Degree Days 0 1  
Month to date cooling degree days 10 12  
Year to date cooling degree days 2872 2496  
Moisture  
Dew Point 28 °F    
Average Humidity 61    
Maximum Humidity 86    
Minimum Humidity 36    
Precipitation  
Precipitation 0.00 in 0.05 in 0.81 in (1939)
Month to date precipitation 3.00 0.56  
Year to date precipitation 16.31 19.82  
Snow  
Snow 0.00 in 0.00 in T in (1992)
Month to date snowfall 0.0 0.0  
Since 1 July snowfall 0.0 0.0  
Snow Depth 0.00 in    
Sea Level Pressure  
Sea Level Pressure 30.11 in    
Wind  
Wind Speed 14 mph (North)    
Max Wind Speed 25 mph    
Max Gust Speed 33 mph    
Visibility 10 miles    
Events      
T = Trace of Precipitation, MM = Missing Value Source: NWS Daily Summary

Daily Weather History Graph

Daily Weather History Graph

Search for Another Location

Airport:

Trip Planner

Search our weather history database for the weather conditions in past years. The results will help you decide how hot, cold, wet, or windy it might be!

Date:

Astronomy

Nov. 11, 2014 Rise Set
Actual Time 7:06 AM CST 5:45 PM CST
Civil Twilight 6:40 AM CST 6:11 PM CST
Nautical Twilight 6:11 AM CST 6:40 PM CST
Astronomical Twilight 5:42 AM CST 7:08 PM CST
Moon 10:10 PM CST (11/11) 11:13 AM CST (11/11)
Length of Visible Light 11h 30m
Length of Day
10h 39m
Waning Gibbous, 76% of the Moon is Illuminated
Nov 11
Waning Gibbous
Nov 14
Last Quarter
Nov 22
New
Nov 29
First Quarter
Dec 6
Full

Hourly Weather History & Observations

Time (CST) Temp. Windchill Dew Point Humidity Pressure Visibility Wind Dir Wind Speed Gust Speed Precip Events Conditions
12:51 AM 60.1 °F - 54.0 °F 80% 29.72 in 10.0 mi West 8.1 mph - N/A   Clear
1:51 AM 57.9 °F - 54.0 °F 87% 29.73 in 10.0 mi West 8.1 mph - N/A   Clear
2:22 AM 62.1 °F - 55.0 °F 78% 29.85 in 10.0 mi North 11.5 mph - N/A   Partly Cloudy
2:51 AM 53.1 °F - 39.9 °F 61% 29.84 in 10.0 mi North 21.9 mph - N/A   Clear
3:51 AM 46.0 °F 39.6 °F 32.0 °F 58% 29.94 in 10.0 mi NNE 15.0 mph - N/A   Clear
4:51 AM 42.1 °F 33.6 °F 28.0 °F 58% 30.00 in 10.0 mi North 18.4 mph - N/A   Clear
5:51 AM 39.9 °F 31.4 °F 25.0 °F 55% 30.05 in 10.0 mi NNE 16.1 mph 25.3 mph N/A   Clear
6:51 AM 37.9 °F 29.6 °F 23.0 °F 55% 30.10 in 10.0 mi North 13.8 mph - N/A   Clear
7:51 AM 37.0 °F 27.0 °F 21.9 °F 54% 30.15 in 10.0 mi North 18.4 mph - N/A   Clear
8:51 AM 39.0 °F 29.3 °F 21.9 °F 50% 30.19 in 10.0 mi North 19.6 mph - N/A   Clear
9:51 AM 41.0 °F 31.4 °F 24.1 °F 51% 30.20 in 10.0 mi North 21.9 mph - N/A   Clear
10:51 AM 43.0 °F 36.4 °F 24.1 °F 47% 30.21 in 10.0 mi North 12.7 mph - N/A   Clear
11:51 AM 44.1 °F 36.8 °F 24.1 °F 45% 30.19 in 10.0 mi North 16.1 mph - N/A   Clear
12:51 PM 46.9 °F - 25.0 °F 42% 30.16 in 10.0 mi North 12.7 mph - N/A   Clear
1:51 PM 46.9 °F - 24.1 °F 41% 30.15 in 10.0 mi North 13.8 mph - N/A   Clear
2:51 PM 48.9 °F - 25.0 °F 39% 30.14 in 10.0 mi North 12.7 mph 18.4 mph N/A   Clear
3:51 PM 50.0 °F - 25.0 °F 38% 30.15 in 10.0 mi NNW 11.5 mph - N/A   Clear
4:51 PM 50.0 °F - 26.1 °F 39% 30.14 in 10.0 mi North 10.4 mph - N/A   Clear
5:51 PM 46.0 °F 41.4 °F 26.1 °F 46% 30.16 in 10.0 mi NNE 9.2 mph - N/A   Clear
6:51 PM 43.0 °F 37.7 °F 27.0 °F 53% 30.19 in 10.0 mi NE 9.2 mph - N/A   Clear
7:51 PM 42.1 °F 35.7 °F 26.1 °F 53% 30.20 in 10.0 mi NE 11.5 mph - N/A   Clear
8:51 PM 39.9 °F 32.9 °F 25.0 °F 55% 30.21 in 10.0 mi NE 11.5 mph - N/A   Clear
9:51 PM 39.0 °F 31.8 °F 24.1 °F 55% 30.24 in 10.0 mi NE 11.5 mph - N/A   Clear
10:51 PM 37.9 °F 30.0 °F 23.0 °F 55% 30.26 in 10.0 mi NNE 12.7 mph - N/A   Clear
11:51 PM 37.0 °F 27.7 °F 21.9 °F 54% 30.27 in 10.0 mi NE 16.1 mph - N/A   Clear